GW5456 Weather Reports


time (UTC)temp
F
wind
direction
speed
knots
gust
knots
rain 1hr
in
rain 24hr
in
rain mn
in
humidity
%
barometer
mb
20260906131648 79 124 0.0 0.0 0.00 0.00 0.00 95 1013.0
20260906131142 79 177 0.0 0.0 0.00 0.00 0.00 97 1012.8
20260906130638 78 182 0.0 0.9 0.00 0.00 0.00 98 1012.9
20260906130133 78 139 0.0 0.9 0.00 0.00 0.00 98 1012.8
20260906125631 78 114 0.9 0.9 0.00 0.00 0.00 98 1012.8
20260906125129 78 161 0.0 0.0 0.00 0.00 0.00 98 1012.8
20260906124625 78 165 0.0 0.9 0.00 0.00 0.00 98 1012.8
20260906124120 77 130 0.0 0.0 0.00 0.00 0.00 98 1012.7
20260906123620 77 130 0.0 0.0 0.00 0.00 0.00 98 1012.7
20260906123115 77 130 0.0 0.0 0.00 0.00 0.00 98 1012.9
20260906122614 76 130 0.0 0.0 0.00 0.00 0.00 98 1012.6
20260906122110 76 130 0.0 0.0 0.00 0.00 0.00 98 1012.7
20260906121606 76 130 0.0 0.0 0.00 0.00 0.00 98 1012.6
20260906121102 76 130 0.0 0.0 0.00 0.00 0.00 98 1012.4
20260906120557 76 130 0.0 0.0 0.00 0.00 0.00 98 1012.6
20260906120055 76 130 0.0 0.0 0.00 0.00 0.00 98 1012.7
20260906115554 76 130 0.0 0.0 0.00 0.00 0.00 98 1012.3
20260906115050 76 130 0.0 0.0 0.00 0.00 0.00 98 1012.2
20260906114543 76 130 0.0 0.0 0.00 0.00 0.00 98 1012.0
20260906114039 76 130 0.0 0.0 0.00 0.00 0.00 98 1012.1
20260906113538 76 130 0.0 0.0 0.00 0.00 0.00 98 1012.1
20260906113033 76 130 0.0 0.0 0.00 0.00 0.00 98 1012.1
20260906112528 76 130 0.0 0.0 0.00 0.00 0.00 98 1012.0
20260906112025 76 130 0.0 0.0 0.00 0.00 0.00 98 1012.2
20260906111524 76 130 0.0 0.0 0.00 0.00 0.00 98 1012.0
20260906111020 76 130 0.0 0.0 0.00 0.00 0.00 98 1012.0
20260906110519 76 130 0.0 0.0 0.00 0.00 0.00 98 1012.1
20260906110019 76 130 0.0 0.0 0.00 0.00 0.00 98 1012.1
20260906105514 76 130 0.0 0.0 0.00 0.00 0.00 98 1011.9
20260906105010 76 130 0.0 0.0 0.00 0.00 0.00 98 1011.9
20260906104508 76 130 0.0 0.0 0.00 0.00 0.00 98 1011.8
20260906104003 76 130 0.0 0.0 0.00 0.00 0.00 98 1011.8
20260906103501 76 130 0.0 0.0 0.00 0.00 0.00 98 1012.0
20260906102956 76 130 0.0 0.0 0.00 0.00 0.00 98 1011.9
20260906102457 76 130 0.0 0.0 0.00 0.00 0.00 98 1011.6
20260906101956 76 130 0.0 0.0 0.00 0.00 0.00 98 1011.7
20260906101452 76 130 0.0 0.0 0.00 0.00 0.00 98 1011.7
20260906100947 76 130 0.0 0.0 0.00 0.00 0.00 98 1011.6
20260906100442 76 130 0.0 0.0 0.00 0.00 0.00 97 1011.7
20260906095942 76 130 0.0 0.0 0.00 0.00 0.00 97 1011.7
20260906095437 76 130 0.0 0.0 0.00 0.00 0.00 97 1011.5
20260906094932 76 130 0.0 0.0 0.00 0.00 0.00 97 1011.5
20260906094426 76 130 0.0 0.0 0.00 0.00 0.00 97 1011.7
20260906093922 76 130 0.0 0.0 0.00 0.00 0.00 97 1011.5
20260906093419 76 130 0.0 0.0 0.00 0.00 0.00 97 1011.6
20260906092919 76 130 0.0 0.0 0.00 0.00 0.00 97 1011.4
20260906092418 76 130 0.0 0.0 0.00 0.00 0.00 97 1011.5
20260906091914 76 130 0.0 0.0 0.00 0.00 0.00 97 1011.4
20260906091409 76 130 0.0 0.0 0.00 0.00 0.00 97 1011.5
20260906090906 76 130 0.0 0.0 0.00 0.00 0.00 97 1011.5
20260906090405 76 130 0.0 0.0 0.00 0.00 0.00 97 1011.1
20260906085900 76 130 0.0 0.0 0.00 0.00 0.00 97 1011.2
20260906085359 76 130 0.0 0.0 0.00 0.00 0.00 97 1011.0
20260906084859 76 130 0.0 0.0 0.00 0.00 0.00 97 1011.1
20260906084354 76 130 0.0 0.0 0.00 0.00 0.00 97 1011.0
20260906083848 76 130 0.0 0.0 0.00 0.00 0.00 97 1011.1
20260906083344 76 130 0.0 0.0 0.00 0.00 0.00 97 1011.1
20260906082844 76 130 0.0 0.0 0.00 0.00 0.00 97 1011.2
20260906082344 77 130 0.0 0.0 0.00 0.00 0.00 96 1011.2
20260906081840 77 130 0.0 0.0 0.00 0.00 0.00 96 1011.1
20260906081336 76 130 0.0 0.0 0.00 0.00 0.00 96 1011.1
20260906080832 77 130 0.0 0.0 0.00 0.00 0.00 96 1011.3
20260906080328 77 130 0.0 0.0 0.00 0.00 0.00 96 1011.3
20260906075827 77 130 0.0 0.0 0.00 0.00 0.00 96 1011.3
20260906075327 77 130 0.0 0.0 0.00 0.00 0.00 96 1011.3
20260906074823 77 130 0.0 0.0 0.00 0.00 0.00 96 1011.3
20260906074322 77 130 0.0 0.0 0.00 0.00 0.00 96 1011.0
20260906073821 77 130 0.0 0.0 0.00 0.00 0.00 96 1010.9
20260906073321 77 130 0.0 0.0 0.00 0.00 0.00 96 1011.1
20260906072818 77 129 0.0 0.0 0.00 0.00 0.00 96 1011.0
20260906072314 77 130 0.0 0.0 0.00 0.00 0.00 96 1010.9
20260906071809 77 130 0.0 0.0 0.00 0.00 0.00 96 1011.2
20260906071304 77 130 0.0 0.0 0.00 0.00 0.00 96 1011.0
20260906070801 77 130 0.0 0.0 0.00 0.00 0.00 96 1011.1
20260906070256 77 130 0.0 0.0 0.00 0.00 0.00 96 1011.1
20260906065755 77 130 0.0 0.0 0.00 0.00 0.00 96 1010.9
20260906065251 77 130 0.0 0.0 0.00 0.00 0.00 95 1011.1
20260906064747 77 130 0.0 0.0 0.00 0.00 0.00 95 1011.1
20260906064242 78 130 0.0 0.0 0.00 0.00 0.00 95 1011.1
20260906063737 78 130 0.0 0.0 0.00 0.00 0.00 95 1011.0
20260906063233 78 130 0.0 0.0 0.00 0.00 0.00 95 1011.0
20260906062728 78 130 0.0 0.0 0.00 0.00 0.00 95 1011.1
20260906062227 78 130 0.0 0.0 0.00 0.00 0.00 95 1011.1
20260906061723 78 130 0.0 0.0 0.00 0.00 0.00 95 1011.3
20260906061219 78 130 0.0 0.0 0.00 0.00 0.00 95 1011.5
20260906060714 78 130 0.0 0.0 0.00 0.00 0.00 95 1011.5
20260906060212 78 129 0.0 0.0 0.00 0.00 0.00 95 1011.3
20260906055707 78 130 0.0 0.0 0.00 0.00 0.00 94 1011.5
20260906055202 78 130 0.0 0.0 0.00 0.00 0.00 94 1011.4
20260906054658 78 130 0.0 0.0 0.00 0.00 0.00 94 1011.4
20260906054158 78 130 0.0 0.0 0.00 0.00 0.00 94 1011.7
20260906053655 78 129 0.0 0.0 0.00 0.00 0.00 94 1011.8
20260906053150 78 130 0.0 0.0 0.00 0.00 0.00 94 1011.6
20260906052645 78 130 0.0 0.0 0.00 0.00 0.00 94 1011.5
20260906052141 78 130 0.0 0.0 0.00 0.00 0.00 94 1011.7
20260906051637 78 130 0.0 0.0 0.00 0.00 0.00 94 1011.7
20260906051137 78 130 0.0 0.0 0.00 0.00 0.00 94 1011.7
20260906050633 78 130 0.0 0.0 0.00 0.00 0.00 94 1011.8
20260906050128 78 130 0.0 0.0 0.00 0.00 0.00 94 1011.8
20260906045626 78 130 0.0 0.0 0.00 0.00 0.00 93 1011.9
20260906045121 78 130 0.0 0.0 0.00 0.00 0.00 93 1011.8
20260906044617 78 130 0.0 0.0 0.00 0.00 0.00 93 1012.0
20260906044113 78 130 0.0 0.0 0.00 0.00 0.00 93 1011.7
20260906043609 78 129 0.0 0.0 0.00 0.00 0.00 93 1011.9
20260906043104 78 129 0.0 0.0 0.00 0.00 0.00 92 1012.0
20260906042603 78 130 0.0 0.0 0.00 0.00 0.00 92 1012.1
20260906042058 78 130 0.0 0.0 0.00 0.00 0.00 92 1012.1
20260906041554 78 129 0.0 0.0 0.00 0.00 0.00 91 1012.1
20260906041048 78 130 0.0 0.0 0.00 0.00 0.00 90 1012.1
20260906040544 78 129 0.0 0.0 0.00 0.00 0.00 90 1012.1
20260906040039 79 129 0.0 0.0 0.00 0.00 0.00 89 1012.2
20260906035534 79 129 0.0 0.0 0.00 0.00 0.00 89 1012.2
20260906035030 79 129 0.0 0.0 0.00 0.00 0.00 89 1012.2
20260906034530 79 130 0.0 0.0 0.00 0.00 0.00 89 1012.4
20260906034025 79 130 0.0 0.0 0.00 0.00 0.00 89 1012.3
20260906033520 79 130 0.0 0.0 0.00 0.00 0.00 88 1012.5
20260906033016 79 130 0.0 0.0 0.00 0.00 0.00 88 1012.6
20260906032513 79 130 0.0 0.0 0.00 0.00 0.00 88 1012.7
20260906032012 79 130 0.0 0.0 0.00 0.00 0.00 87 1012.8
20260906031508 79 129 0.9 0.9 0.00 0.00 0.00 87 1012.9
20260906031003 79 131 0.0 0.0 0.00 0.00 0.00 87 1012.9
20260906030457 79 131 0.0 0.9 0.00 0.00 0.00 87 1012.6
20260906025957 80 131 0.0 0.0 0.00 0.00 0.00 87 1012.6
20260906025456 80 131 0.0 0.0 0.00 0.00 0.00 87 1012.6
20260906024955 79 138 0.0 0.0 0.00 0.00 0.00 87 1012.5
20260906024450 79 143 0.0 0.0 0.00 0.00 0.00 88 1012.1
20260906023950 79 143 0.0 0.0 0.00 0.00 0.00 87 1012.2
20260906023447 79 143 0.0 0.0 0.00 0.00 0.00 87 1012.0
20260906022947 79 143 0.0 0.0 0.00 0.00 0.00 87 1012.1
20260906022442 79 143 0.0 0.0 0.00 0.00 0.00 87 1012.0
20260906021938 79 143 0.0 0.0 0.00 0.00 0.00 87 1012.0
20260906021438 80 143 0.0 0.0 0.00 0.00 0.00 86 1011.7
20260906020932 80 142 0.0 0.0 0.00 0.00 0.00 86 1011.8
20260906020427 80 164 0.0 0.0 0.00 0.00 0.00 86 1011.7
20260906015927 80 166 0.0 0.0 0.00 0.00 0.00 86 1011.7
20260906015426 80 166 0.0 0.0 0.00 0.00 0.00 85 1011.7
20260906014926 80 167 0.0 0.0 0.00 0.00 0.00 86 1011.8
20260906014426 80 166 0.0 0.0 0.00 0.00 0.00 85 1011.5
20260906013923 80 167 0.0 0.0 0.00 0.00 0.00 86 1011.3
20260906013418 80 166 0.0 0.0 0.00 0.00 0.00 86 1011.3
20260906012914 80 166 0.0 0.0 0.00 0.00 0.00 85 1011.3
20260906012414 80 166 0.0 0.0 0.00 0.00 0.00 85 1011.1
20260906011913 80 169 0.0 0.0 0.00 0.00 0.00 85 1011.1
20260906011408 80 169 0.0 0.0 0.00 0.00 0.00 85 1011.0
20260906010909 80 168 0.0 0.0 0.00 0.00 0.00 85 1011.1
20260906010404 81 168 0.0 0.0 0.00 0.00 0.00 85 1010.9
20260906005900 81 169 0.0 0.0 0.00 0.00 0.00 85 1010.9
20260906005359 81 168 0.0 0.9 0.00 0.00 0.00 86 1010.9
20260906004859 81 162 0.0 0.0 0.00 0.00 0.00 86 1011.1
20260906004359 81 173 0.0 0.0 0.00 0.00 0.00 86 1011.1
20260906003854 81 173 0.0 0.0 0.00 0.00 0.00 85 1010.8
20260906003349 81 173 0.0 0.0 0.00 0.00 0.00 85 1010.9
20260906002845 81 173 0.0 0.0 0.00 0.00 0.00 85 1010.9
20260906002344 81 173 0.0 0.0 0.00 0.00 0.00 84 1010.7
20260906001840 81 189 0.0 0.0 0.00 0.00 0.00 84 1010.6
20260906001335 82 189 0.0 0.0 0.00 0.00 0.00 83 1010.8
20260906000830 82 189 0.0 0.0 0.00 0.00 0.00 83 1010.6
20260906000326 82 190 0.0 0.0 0.00 0.00 0.00 82 1010.7
20260905235825 82 166 0.0 0.0 0.00 0.00 0.00 82 1010.9
20260905235319 82 165 0.0 0.0 0.00 0.00 0.00 82 1010.8
20260905234815 82 167 0.0 0.9 0.00 0.00 0.00 81 1010.7
20260905234310 83 155 0.0 0.0 0.00 0.00 0.00 80 1010.9
20260905233805 83 155 0.0 0.0 0.00 0.00 0.00 79 1010.7
20260905233306 83 155 0.0 0.0 0.00 0.00 0.00 79 1010.9
20260905232804 83 154 0.0 0.0 0.00 0.00 0.00 78 1010.9
20260905232301 83 158 0.0 0.0 0.00 0.00 0.00 78 1010.9
20260905231756 83 157 0.0 0.0 0.00 0.00 0.00 77 1010.9
20260905231251 84 166 0.0 0.0 0.00 0.00 0.00 77 1010.9
20260905230748 84 166 0.0 0.0 0.00 0.00 0.00 76 1010.9
20260905230245 84 155 0.0 0.0 0.00 0.00 0.00 75 1010.9
20260905225745 84 181 0.0 0.0 0.00 0.00 0.00 75 1011.2
20260905225241 85 175 0.0 0.9 0.00 0.00 0.00 75 1010.9
20260905224739 85 153 0.0 0.0 0.00 0.00 0.00 73 1011.2
20260905224235 86 154 0.0 0.0 0.00 0.00 0.00 72 1011.3
20260905223731 86 153 0.0 0.0 0.00 0.00 0.00 72 1011.3
20260905223228 87 164 0.9 2.6 0.00 0.00 0.00 70 1011.2
20260905222723 87 166 0.9 1.7 0.00 0.00 0.00 69 1011.6
20260905222222 86 171 0.0 0.9 0.00 0.00 0.00 73 1011.5
20260905221718 85 169 0.0 0.9 0.00 0.00 0.00 76 1011.3
20260905221215 85 155 0.0 1.7 0.00 0.00 0.00 77 1011.5
20260905220711 85 159 0.9 0.9 0.00 0.00 0.00 80 1011.5
20260905220206 85 162 0.0 1.7 0.00 0.00 0.00 82 1011.4
20260905215706 85 127 0.0 0.9 0.00 0.00 0.00 81 1011.4
20260905215201 84 143 0.0 0.0 0.00 0.00 0.00 81 1011.1
20260905214657 84 148 0.0 0.9 0.00 0.00 0.00 83 1011.1
20260905214152 84 205 0.0 0.9 0.00 0.00 0.00 83 1011.1
20260905213648 84 155 0.9 2.6 0.00 0.00 0.00 83 1011.3
20260905213143 84 160 0.0 0.9 0.00 0.00 0.00 83 1011.1
20260905212638 84 150 0.9 1.7 0.00 0.00 0.00 83 1011.2
20260905212138 84 156 0.0 0.0 0.00 0.00 0.00 82 1011.5
20260905211632 84 151 0.0 0.9 0.00 0.00 0.00 83 1011.5
20260905211128 84 163 0.0 0.9 0.00 0.00 0.00 82 1011.7
20260905210625 84 161 0.0 0.0 0.00 0.00 0.00 82 1011.5
20260905210119 84 162 0.0 0.0 0.00 0.00 0.00 82 1011.7
20260905205618 84 162 0.0 0.9 0.00 0.00 0.00 78 1011.6
20260905205118 84 109 0.0 0.0 0.00 0.00 0.00 81 1011.6
20260905204617 84 123 0.0 0.9 0.00 0.00 0.00 83 1011.5
20260905204113 84 126 0.0 0.0 0.00 0.00 0.00 83 1011.2
20260905203613 84 164 0.0 0.0 0.00 0.00 0.00 82 1011.4
20260905203108 84 171 0.9 0.9 0.00 0.00 0.00 84 1011.7
20260905202604 83 179 0.0 0.0 0.00 0.00 0.00 85 1011.6
20260905202059 83 181 0.0 0.0 0.00 0.00 0.00 84 1012.0
20260905201555 83 175 0.0 0.0 0.00 0.00 0.00 86 1011.7
20260905201054 83 166 0.0 0.0 0.00 0.00 0.00 87 1011.9
20260905200549 83 105 0.0 0.9 0.00 0.00 0.00 87 1011.9
20260905200044 83 159 0.0 0.0 0.00 0.00 0.00 88 1011.9
20260905195538 83 160 0.0 1.7 0.00 0.00 0.00 85 1011.9
20260905195034 85 63 0.9 2.6 0.00 0.00 0.00 83 1012.1
20260905194533 86 48 2.6 6.1 0.00 0.00 0.00 78 1012.0
20260905194033 86 100 0.0 0.9 0.00 0.00 0.00 76 1012.1
20260905193527 86 121 0.0 0.9 0.00 0.00 0.00 75 1012.1
20260905193023 87 164 0.0 0.9 0.00 0.00 0.00 73 1012.1
20260905192518 87 186 0.0 0.9 0.00 0.00 0.00 74 1012.3
20260905192015 88 176 0.9 1.7 0.00 0.00 0.00 71 1012.4
20260905191513 89 129 0.0 0.0 0.00 0.00 0.00 72 1012.3
20260905191012 90 183 0.0 0.0 0.00 0.00 0.00 71 1012.5
20260905190510 92 218 0.9 2.6 0.00 0.00 0.00 65 1012.4
20260905190009 92 101 0.0 0.9 0.00 0.00 0.00 64 1012.3
20260905185505 92 131 0.0 0.0 0.00 0.00 0.00 64 1012.3
20260905185004 92 112 0.0 0.9 0.00 0.00 0.00 65 1012.1
20260905184458 94 163 0.0 1.7 0.00 0.00 0.00 61 1012.3
20260905183957 92 194 0.0 2.6 0.00 0.00 0.00 66 1012.3
20260905183451 92 263 0.0 0.9 0.00 0.00 0.00 63 1012.1
20260905182946 90 80 0.0 0.9 0.00 0.00 0.00 66 1012.5
20260905182446 89 150 0.9 0.9 0.00 0.00 0.00 67 1012.6
20260905181941 90 156 0.0 0.9 0.00 0.00 0.00 68 1012.5
20260905181440 91 62 0.9 1.7 0.00 0.00 0.00 66 1012.6
20260905180940 91 92 0.0 0.9 0.00 0.00 0.00 66 1012.5
20260905180435 92 34 0.0 0.9 0.00 0.00 0.00 63 1012.9
20260905175930 92 79 1.7 2.6 0.00 0.00 0.00 63 1012.8
20260905175429 93 204 0.0 1.7 0.00 0.00 0.00 64 1013.0
20260905174925 94 208 0.9 1.7 0.00 0.00 0.00 62 1013.0
20260905174420 93 193 0.9 0.9 0.00 0.00 0.00 62 1012.9
20260905173916 91 83 0.0 0.0 0.00 0.00 0.00 67 1013.1
20260905173412 89 128 0.0 0.9 0.00 0.00 0.00 67 1013.2
20260905172912 89 66 1.7 2.6 0.00 0.00 0.00 73 1013.2
20260905172410 89 121 1.7 2.6 0.00 0.00 0.00 72 1013.2
20260905171906 88 234 1.7 2.6 0.00 0.00 0.00 75 1013.3
20260905171403 86 148 1.7 1.7 0.00 0.00 0.00 77 1013.4
20260905170859 86 107 0.0 0.9 0.00 0.00 0.00 78 1013.5
20260905170355 87 140 0.0 0.9 0.00 0.00 0.00 77 1013.8
20260905165854 90 153 0.9 0.9 0.00 0.00 0.00 70 1013.7
20260905165350 92 37 0.9 2.6 0.00 0.00 0.00 68 1013.7
20260905164850 91 64 1.7 1.7 0.00 0.00 0.00 66 1013.6
20260905164345 90 173 0.0 1.7 0.00 0.00 0.00 68 1013.8
20260905163841 91 145 0.0 1.7 0.00 0.00 0.00 69 1013.8
20260905163337 92 173 0.0 0.0 0.00 0.00 0.00 69 1013.9
20260905162833 90 137 0.9 0.9 0.00 0.00 0.00 72 1013.9
20260905162332 89 176 0.0 0.9 0.00 0.00 0.00 73 1013.9
20260905161826 89 161 0.9 0.9 0.00 0.00 0.00 71 1014.0
20260905161326 89 133 0.0 0.9 0.00 0.00 0.00 71 1014.0
20260905160824 90 72 0.9 2.6 0.00 0.00 0.00 65 1014.1
20260905160319 90 75 0.0 0.9 0.00 0.00 0.00 67 1014.1
20260905155813 90 132 0.0 0.0 0.00 0.00 0.00 73 1014.0
20260905155312 90 170 0.0 0.0 0.00 0.00 0.00 73 1014.0
20260905154807 88 164 0.0 1.7 0.00 0.00 0.00 75 1014.0
20260905154302 87 157 0.0 0.9 0.00 0.00 0.00 74 1014.4
20260905153757 88 159 0.0 0.9 0.00 0.00 0.00 75 1014.1
20260905153253 88 132 0.0 0.0 0.00 0.00 0.00 75 1014.0
20260905152749 87 134 0.0 0.0 0.00 0.00 0.00 76 1014.3
20260905152248 87 132 0.0 0.9 0.00 0.00 0.00 75 1014.2
20260905151748 86 98 0.0 0.9 0.00 0.00 0.00 80 1014.4
20260905151244 86 166 0.0 0.9 0.00 0.00 0.00 81 1014.5
20260905150743 86 198 0.0 0.0 0.00 0.00 0.00 80 1014.4
20260905150243 85 130 0.0 0.0 0.00 0.00 0.00 82 1014.3
20260905145740 85 135 0.0 1.7 0.00 0.00 0.00 82 1014.4
20260905145236 84 157 0.9 0.9 0.00 0.00 0.00 82 1014.1
20260905144734 84 164 1.7 2.6 0.00 0.00 0.00 83 1014.3
20260905144230 84 175 0.0 0.0 0.00 0.00 0.00 85 1014.1
20260905143729 83 170 0.0 0.0 0.00 0.00 0.00 85 1014.2
20260905143229 83 150 0.0 0.0 0.00 0.00 0.00 87 1014.3
20260905142727 83 161 0.0 0.0 0.00 0.00 0.00 89 1014.2
20260905142222 82 154 0.0 0.0 0.00 0.00 0.00 88 1014.3
20260905141718 82 162 0.0 0.0 0.00 0.00 0.00 89 1014.3
20260905141214 82 170 0.0 0.0 0.00 0.00 0.00 89 1014.4
20260905140709 82 171 0.0 0.0 0.00 0.00 0.00 89 1014.7
20260905140208 82 177 0.0 0.0 0.00 0.00 0.00 90 1014.6
20260905135657 82 111 0.0 0.0 0.00 0.00 0.00 91 1014.7
20260905135154 81 111 0.0 0.0 0.00 0.00 0.00 92 1014.7
20260905134653 81 111 0.0 0.0 0.00 0.00 0.00 92 1014.7
20260905134152 81 112 0.0 0.0 0.00 0.00 0.00 95 1014.8
20260905133648 80 112 0.0 0.0 0.00 0.00 0.00 96 1014.7
20260905133147 80 116 0.0 0.0 0.00 0.00 0.00 97 1014.7
20260905132647 80 116 0.0 0.0 0.00 0.00 0.00 98 1014.6
20260905132142 79 116 0.0 0.0 0.00 0.00 0.00 98 1014.7